Location: San Gennaro Vesuviano
(40.8833°N, 14.5333°E)
Time: 22:35:26
(UTC+00:00)

Cosmos 2297 Rocket - Pass Details

Date: 22 April 2021
Orbit: 838 x 844 km, 71.0° (Epoch: 10 May)

Event Time Altitude Azimuth Distance (km) Brightness Sun altitude
Rises 18:55:40 0° 190° (S) 3,376 5.1 -12.4°
Reaches altitude 10° 18:58:07 10° 187° (S) 2,446 4.4 -12.8°
Maximum altitude 19:03:37 59° 109° (ESE) 971 2.2 -13.7°
Drops below altitude 10° 19:09:09 10° 31° (NNE) 2,466 4.6 -14.6°
Sets 19:11:38 0° 28° (NNE) 3,406 5.4 -15.0°
